Time,TemperatureF,DewpointF,PressureIn,WindDirection,WindDirectionDegrees,WindSpeedMPH,WindSpeedGustMPH,Humidity,HourlyPrecipIn,Conditions,Clouds,dailyrainin,SoftwareType,DateUTC
2013-05-01 00:08:00,66.6,-99.9,30.03,NNW,338,2.5,8.1,6,0.00,,CLR,0.00,VWS V14.01,2013-05-01 07:08:00,
2013-05-01 00:10:00,66.6,-99.9,30.03,NNW,338,2.5,8.1,6,0.00,,BKN250,0.00,VWS V14.01,2013-05-01 07:10:00,
2013-05-01 00:18:00,65.1,-99.9,30.03,ENE,68,0.0,3.6,6,0.00,,CLR,0.00,VWS V14.01,2013-05-01 07:18:00,
2013-05-01 00:20:00,65.1,-99.9,30.03,ENE,68,0.0,3.6,6,0.00,,BKN250,0.00,VWS V14.01,2013-05-01 07:20:00,
2013-05-01 00:28:00,63.9,-99.9,30.03,ENE,68,2.9,4.3,7,0.00,,CLR,0.00,VWS V14.01,2013-05-01 07:28:00,
2013-05-01 00:30:00,63.9,-99.9,30.03,ENE,68,2.9,4.3,7,0.00,,BKN250,0.00,VWS V14.01,2013-05-01 07:30:00,
2013-05-01 00:38:00,64.9,-99.9,30.03,NNE,22,2.0,9.8,6,0.00,,CLR,0.00,VWS V14.01,2013-05-01 07:38:00,
2013-05-01 00:40:00,64.9,-99.9,30.03,NNE,22,2.0,9.8,6,0.00,,BKN250,0.00,VWS V14.01,2013-05-01 07:40:00,
2013-05-01 00:48:00,65.5,-99.9,30.03,SW,225,3.8,8.1,6,0.00,,CLR,0.00,VWS V14.01,2013-05-01 07:48:00,
2013-05-01 00:50:00,65.5,-99.9,30.03,SW,225,3.8,8.1,6,0.00,,BKN250,0.00,VWS V14.01,2013-05-01 07:50:00,
2013-05-01 00:58:00,64.2,-99.9,30.03,SSW,202,0.0,6.5,7,0.00,,CLR,0.00,VWS V14.01,2013-05-01 07:58:00,
2013-05-01 01:00:00,64.2,-99.9,30.03,SSW,202,0.0,6.5,7,0.00,,BKN250,0.00,VWS V14.01,2013-05-01 08:00:00,
2013-05-01 01:08:00,63.5,-99.9,30.03,NNE,22,3.4,4.3,7,0.00,,CLR,0.00,VWS V14.01,2013-05-01 08:08:00,
2013-05-01 01:10:00,63.5,-99.9,30.03,NNE,22,3.4,4.3,7,0.00,,BKN250,0.00,VWS V14.01,2013-05-01 08:10:00,
2013-05-01 01:28:00,63.5,-99.9,30.00,NE,45,1.6,6.3,7,0.00,,CLR,0.00,VWS V14.01,2013-05-01 08:28:00,
2013-05-01 01:30:00,63.5,-99.9,30.00,NE,45,1.6,6.3,7,0.00,,BKN250,0.00,VWS V14.01,2013-05-01 08:30:00,
2013-05-01 01:38:00,65.8,-99.9,30.03,South,180,6.3,10.3,6,0.00,,CLR,0.00,VWS V14.01,2013-05-01 08:38:00,
2013-05-01 01:40:00,65.8,-99.9,30.03,South,180,6.3,10.3,6,0.00,,BKN250,0.00,VWS V14.01,2013-05-01 08:40:00,
2013-05-01 01:48:00,67.5,-99.9,30.03,WNW,292,5.6,11.9,6,0.00,,CLR,0.00,VWS V14.01,2013-05-01 08:48:00,
2013-05-01 01:50:00,67.5,-99.9,30.03,WNW,292,5.6,11.9,6,0.00,,BKN250,0.00,VWS V14.01,2013-05-01 08:50:00,
2013-05-01 01:58:00,68.2,-99.9,30.03,South,180,2.9,12.8,6,0.00,,CLR,0.00,VWS V14.01,2013-05-01 08:58:00,
2013-05-01 02:00:00,68.2,-99.9,30.03,South,180,2.9,12.8,6,0.00,,BKN250,0.00,VWS V14.01,2013-05-01 09:00:00,
2013-05-01 02:08:00,67.6,-99.9,30.03,SSE,158,6.3,14.8,6,0.00,,CLR,0.00,VWS V14.01,2013-05-01 09:08:00,
2013-05-01 02:10:00,67.6,-99.9,30.03,SSE,158,6.3,14.8,6,0.00,,BKN250,0.00,VWS V14.01,2013-05-01 09:10:00,
2013-05-01 02:18:00,67.6,-99.9,30.03,WSW,248,2.7,14.8,6,0.00,,CLR,0.00,VWS V14.01,2013-05-01 09:18:00,
2013-05-01 02:20:00,67.6,-99.9,30.03,WSW,248,2.7,14.8,6,0.00,,BKN250,0.00,VWS V14.01,2013-05-01 09:20:00,
2013-05-01 02:28:00,66.0,-99.9,30.03,North,0,2.7,4.3,6,0.00,,CLR,0.00,VWS V14.01,2013-05-01 09:28:00,
2013-05-01 02:30:00,66.0,-99.9,30.03,North,0,2.7,4.3,6,0.00,,BKN250,0.00,VWS V14.01,2013-05-01 09:30:00,
2013-05-01 02:38:00,63.5,-99.9,30.03,North,0,2.5,3.6,7,0.00,,CLR,0.00,VWS V14.01,2013-05-01 09:38:00,
2013-05-01 02:40:00,63.5,-99.9,30.03,North,0,2.5,3.6,7,0.00,,BKN250,0.00,VWS V14.01,2013-05-01 09:40:00,
2013-05-01 02:48:00,61.7,-99.9,30.03,WNW,292,1.3,3.6,7,0.00,,CLR,0.00,VWS V14.01,2013-05-01 09:48:00,
2013-05-01 02:50:00,61.7,-99.9,30.03,WNW,292,1.3,3.6,7,0.00,,BKN250,0.00,VWS V14.01,2013-05-01 09:50:00,
2013-05-01 02:59:00,61.2,-99.9,30.03,East,90,3.1,4.0,7,0.00,,CLR,0.00,VWS V14.01,2013-05-01 09:59:00,
2013-05-01 03:00:00,61.2,-99.9,30.03,East,90,3.1,4.0,7,0.00,,BKN250,0.00,VWS V14.01,2013-05-01 10:00:00,
2013-05-01 03:08:00,61.7,-99.9,30.03,NE,45,0.0,4.3,7,0.00,,CLR,0.00,VWS V14.01,2013-05-01 10:08:00,
2013-05-01 03:10:00,61.7,-99.9,30.03,NE,45,0.0,4.3,7,0.00,,BKN250,0.00,VWS V14.01,2013-05-01 10:10:00,
2013-05-01 03:18:00,61.0,-99.9,30.03,NE,45,2.9,3.8,7,0.00,,CLR,0.00,VWS V14.01,2013-05-01 10:18:00,
2013-05-01 03:20:00,61.0,-99.9,30.03,NE,45,2.9,3.8,7,0.00,,BKN250,0.00,VWS V14.01,2013-05-01 10:20:00,
2013-05-01 03:28:00,59.7,-99.9,30.03,NNW,338,3.8,4.9,8,0.00,,CLR,0.00,VWS V14.01,2013-05-01 10:28:00,
2013-05-01 03:30:00,59.7,-99.9,30.03,NNW,338,3.8,4.9,8,0.00,,BKN250,0.00,VWS V14.01,2013-05-01 10:30:00,
2013-05-01 03:38:00,58.3,-99.9,30.03,WNW,292,3.1,4.3,8,0.00,,CLR,0.00,VWS V14.01,2013-05-01 10:38:00,
2013-05-01 03:40:00,58.3,-99.9,30.03,WNW,292,3.1,4.3,8,0.00,,BKN250,0.00,VWS V14.01,2013-05-01 10:40:00,
2013-05-01 03:48:00,57.9,-99.9,30.03,East,90,0.0,6.0,8,0.00,,CLR,0.00,VWS V14.01,2013-05-01 10:48:00,
2013-05-01 03:50:00,57.9,-99.9,30.03,East,90,0.0,6.0,8,0.00,,BKN250,0.00,VWS V14.01,2013-05-01 10:50:00,
2013-05-01 03:58:00,57.9,-99.9,30.03,SSE,158,1.3,5.8,8,0.00,,CLR,0.00,VWS V14.01,2013-05-01 10:58:00,
2013-05-01 04:00:00,57.9,-99.9,30.03,SSE,158,1.3,5.8,8,0.00,,BKN250,0.00,VWS V14.01,2013-05-01 11:00:00,
2013-05-01 04:08:00,58.6,-99.9,30.03,SW,225,2.5,4.7,8,0.00,,CLR,0.00,VWS V14.01,2013-05-01 11:08:00,
2013-05-01 04:10:00,58.6,-99.9,30.03,SW,225,2.5,4.7,8,0.00,,BKN250,0.00,VWS V14.01,2013-05-01 11:10:00,
2013-05-01 04:19:00,57.0,-99.9,30.03,NNW,338,3.8,3.8,8,0.00,,CLR,0.00,VWS V14.01,2013-05-01 11:19:00,
2013-05-01 04:20:00,57.0,-99.9,30.03,NNW,338,3.8,3.8,8,0.00,,BKN250,0.00,VWS V14.01,2013-05-01 11:20:00,
2013-05-01 04:28:00,57.9,-99.9,30.03,ESE,112,1.1,6.3,8,0.00,,CLR,0.00,VWS V14.01,2013-05-01 11:28:00,
2013-05-01 04:30:00,57.9,-99.9,30.03,ESE,112,1.1,6.3,8,0.00,,BKN250,0.00,VWS V14.01,2013-05-01 11:30:00,
2013-05-01 04:38:00,57.6,-99.9,30.03,NNW,338,0.0,4.0,8,0.00,,CLR,0.00,VWS V14.01,2013-05-01 11:38:00,
2013-05-01 04:40:00,57.6,-99.9,30.03,NNW,338,0.0,4.0,8,0.00,,BKN250,0.00,VWS V14.01,2013-05-01 11:40:00,
2013-05-01 04:48:00,57.0,-99.9,30.06,North,0,2.7,5.4,8,0.00,,CLR,0.00,VWS V14.01,2013-05-01 11:48:00,
2013-05-01 04:50:00,57.0,-99.9,30.06,North,0,2.7,5.4,8,0.00,,BKN250,0.00,VWS V14.01,2013-05-01 11:50:00,
2013-05-01 04:58:00,57.2,-99.9,30.06,NNW,338,4.9,4.9,8,0.00,,CLR,0.00,VWS V14.01,2013-05-01 11:58:00,
2013-05-01 05:00:00,57.2,-99.9,30.06,NNW,338,4.9,4.9,8,0.00,,BKN250,0.00,VWS V14.01,2013-05-01 12:00:00,
2013-05-01 05:08:00,56.8,-99.9,30.06,NE,45,0.9,5.6,8,0.00,,CLR,0.00,VWS V14.01,2013-05-01 12:08:00,
2013-05-01 05:10:00,56.8,-99.9,30.06,NE,45,0.9,5.6,8,0.00,,BKN250,0.00,VWS V14.01,2013-05-01 12:10:00,
2013-05-01 05:18:00,55.9,-99.9,30.06,North,0,1.3,4.7,8,0.00,,CLR,0.00,VWS V14.01,2013-05-01 12:18:00,
2013-05-01 05:20:00,55.9,-99.9,30.06,North,0,1.3,4.7,8,0.00,,BKN250,0.00,VWS V14.01,2013-05-01 12:20:00,
2013-05-01 05:38:00,55.8,-99.9,30.06,West,270,5.4,7.2,8,0.00,,CLR,0.00,VWS V14.01,2013-05-01 12:38:00,
2013-05-01 05:40:00,55.8,-99.9,30.06,West,270,5.4,7.2,8,0.00,,BKN250,0.00,VWS V14.01,2013-05-01 12:40:00,
2013-05-01 05:48:00,55.9,-99.9,30.09,SSW,202,0.0,5.6,8,0.00,,CLR,0.00,VWS V14.01,2013-05-01 12:48:00,
2013-05-01 05:50:00,55.9,-99.9,30.09,SSW,202,0.0,5.6,8,0.00,,BKN250,0.00,VWS V14.01,2013-05-01 12:50:00,
2013-05-01 05:58:00,55.8,-99.9,30.09,WSW,248,2.5,2.5,8,0.00,,CLR,0.00,VWS V14.01,2013-05-01 12:58:00,
2013-05-01 06:00:00,55.8,-99.9,30.09,WSW,248,2.5,2.5,8,0.00,,BKN250,0.00,VWS V14.01,2013-05-01 13:00:00,
2013-05-01 06:08:00,56.3,-99.9,30.09,SSE,158,0.0,2.7,8,0.00,,FEW250,0.00,VWS V14.01,2013-05-01 13:08:00,
2013-05-01 06:10:00,56.3,-99.9,30.09,SSE,158,0.0,2.7,8,0.00,,BKN250,0.00,VWS V14.01,2013-05-01 13:10:00,
2013-05-01 06:19:00,56.7,-99.9,30.09,SSW,202,1.6,2.5,8,0.00,,FEW250,0.00,VWS V14.01,2013-05-01 13:19:00,
2013-05-01 06:20:00,56.7,-99.9,30.09,SSW,202,1.6,2.5,8,0.00,,BKN250,0.00,VWS V14.01,2013-05-01 13:20:00,
2013-05-01 06:28:00,58.5,-99.9,30.09,NNE,22,2.9,2.9,8,0.00,,FEW250,0.00,VWS V14.01,2013-05-01 13:28:00,
2013-05-01 06:30:00,58.5,-99.9,30.09,NNE,22,2.9,2.9,8,0.00,,BKN250,0.00,VWS V14.01,2013-05-01 13:30:00,
2013-05-01 06:38:00,60.1,-99.9,30.09,NNE,22,1.1,4.3,8,0.00,,FEW250,0.00,VWS V14.01,2013-05-01 13:38:00,
2013-05-01 06:40:00,60.1,-99.9,30.09,NNE,22,1.1,4.3,8,0.00,,BKN250,0.00,VWS V14.01,2013-05-01 13:40:00,
2013-05-01 06:48:00,61.0,-99.9,30.09,NNW,338,2.5,4.0,7,0.00,,FEW250,0.00,VWS V14.01,2013-05-01 13:48:00,
2013-05-01 06:50:00,61.0,-99.9,30.09,NNW,338,2.5,4.0,7,0.00,,BKN250,0.00,VWS V14.01,2013-05-01 13:50:00,
2013-05-01 06:58:00,61.9,-99.9,30.09,WSW,248,2.5,2.5,7,0.00,,FEW250,0.00,VWS V14.01,2013-05-01 13:58:00,
2013-05-01 07:00:00,61.9,-99.9,30.09,WSW,248,2.5,2.5,7,0.00,,BKN250,0.00,VWS V14.01,2013-05-01 14:00:00,
2013-05-01 07:08:00,65.5,-99.9,30.09,NNE,22,0.0,2.5,6,0.00,,FEW250,0.00,VWS V14.01,2013-05-01 14:08:00,
2013-05-01 07:10:00,65.5,-99.9,30.09,NNE,22,0.0,2.5,6,0.00,,BKN250,0.00,VWS V14.01,2013-05-01 14:10:00,
2013-05-01 07:19:00,66.9,-99.9,30.09,North,0,1.1,2.9,6,0.00,,FEW250,0.00,VWS V14.01,2013-05-01 14:19:00,
2013-05-01 07:20:00,66.9,-99.9,30.09,North,0,1.1,2.9,6,0.00,,BKN250,0.00,VWS V14.01,2013-05-01 14:20:00,
2013-05-01 07:28:00,67.6,-99.9,30.09,NW,315,3.8,3.8,6,0.00,,FEW250,0.00,VWS V14.01,2013-05-01 14:28:00,
2013-05-01 07:30:00,67.6,-99.9,30.09,NW,315,3.8,3.8,6,0.00,,BKN250,0.00,VWS V14.01,2013-05-01 14:30:00,
2013-05-01 07:38:00,69.1,-99.9,30.09,North,0,2.7,4.9,6,0.00,,FEW250,0.00,VWS V14.01,2013-05-01 14:38:00,
2013-05-01 07:40:00,69.1,-99.9,30.09,North,0,2.7,4.9,6,0.00,,BKN250,0.00,VWS V14.01,2013-05-01 14:40:00,
2013-05-01 07:48:00,70.5,-99.9,30.09,NE,45,2.0,5.6,5,0.00,,FEW250,0.00,VWS V14.01,2013-05-01 14:48:00,
2013-05-01 07:50:00,70.5,-99.9,30.09,NE,45,2.0,5.6,5,0.00,,BKN250,0.00,VWS V14.01,2013-05-01 14:50:00,
2013-05-01 07:58:00,71.6,-99.9,30.12,North,0,4.3,6.3,5,0.00,,FEW250,0.00,VWS V14.01,2013-05-01 14:58:00,
2013-05-01 08:00:00,71.6,-99.9,30.12,North,0,4.3,6.3,5,0.00,,BKN250,0.00,VWS V14.01,2013-05-01 15:00:00,
2013-05-01 08:08:00,71.8,-99.9,30.12,North,0,2.7,5.8,5,0.00,,FEW250,0.00,VWS V14.01,2013-05-01 15:08:00,
2013-05-01 08:10:00,71.8,-99.9,30.12,North,0,2.7,5.8,5,0.00,,BKN250,0.00,VWS V14.01,2013-05-01 15:10:00,
2013-05-01 08:18:00,72.9,-99.9,30.12,NNE,22,6.0,6.0,5,0.00,,FEW250,0.00,VWS V14.01,2013-05-01 15:18:00,
2013-05-01 08:20:00,72.9,-99.9,30.12,NNE,22,6.0,6.0,5,0.00,,BKN250,0.00,VWS V14.01,2013-05-01 15:20:00,
2013-05-01 08:28:00,73.0,-99.9,30.12,NNE,22,4.3,7.8,5,0.00,,FEW250,0.00,VWS V14.01,2013-05-01 15:28:00,
2013-05-01 08:30:00,73.0,-99.9,30.12,NNE,22,4.3,7.8,5,0.00,,BKN250,0.00,VWS V14.01,2013-05-01 15:30:00,
2013-05-01 08:38:00,73.8,-99.9,30.12,North,0,2.5,7.8,4,0.00,,FEW250,0.00,VWS V14.01,2013-05-01 15:38:00,
2013-05-01 08:40:00,73.8,-99.9,30.12,North,0,2.5,7.8,4,0.00,,BKN250,0.00,VWS V14.01,2013-05-01 15:40:00,
2013-05-01 08:48:00,74.7,-99.9,30.12,NNW,338,6.0,8.5,4,0.00,,FEW250,0.00,VWS V14.01,2013-05-01 15:48:00,
2013-05-01 08:50:00,74.7,-99.9,30.12,NNW,338,6.0,8.5,4,0.00,,BKN250,0.00,VWS V14.01,2013-05-01 15:50:00,
2013-05-01 08:58:00,75.9,-99.9,30.12,NW,315,4.0,6.3,4,0.00,,FEW250,0.00,VWS V14.01,2013-05-01 15:58:00,
2013-05-01 09:00:00,75.9,-99.9,30.12,NW,315,4.0,6.3,4,0.00,,BKN250,0.00,VWS V14.01,2013-05-01 16:00:00,
2013-05-01 09:08:00,75.4,-99.9,30.12,West,270,5.6,6.7,4,0.00,,FEW250,0.00,VWS V14.01,2013-05-01 16:08:00,
2013-05-01 09:10:00,75.4,-99.9,30.12,West,270,5.6,6.7,4,0.00,,BKN250,0.00,VWS V14.01,2013-05-01 16:10:00,
2013-05-01 09:18:00,75.4,-99.9,30.12,NE,45,0.0,6.0,4,0.00,,FEW250,0.00,VWS V14.01,2013-05-01 16:18:00,
2013-05-01 09:20:00,75.4,-99.9,30.12,NE,45,0.0,6.0,4,0.00,,BKN250,0.00,VWS V14.01,2013-05-01 16:20:00,
2013-05-01 09:25:00,75.9,-99.9,30.12,North,0,4.0,4.0,4,0.00,,BKN250,0.00,VWS V14.01,2013-05-01 16:25:00,
2013-05-01 09:26:00,75.9,-99.9,30.12,NW,315,3.4,4.0,4,0.00,,BKN250,0.00,VWS V14.01,2013-05-01 16:26:00,
2013-05-01 09:27:00,75.9,-99.9,30.12,NNW,338,6.5,6.5,4,0.00,,BKN250,0.00,VWS V14.01,2013-05-01 16:27:00,
2013-05-01 09:28:00,76.1,-99.9,30.12,NNE,22,5.4,6.5,4,0.00,,BKN250,0.00,VWS V14.01,2013-05-01 16:28:00,
2013-05-01 09:29:00,76.5,-99.9,30.12,West,270,2.5,5.4,4,0.00,,BKN250,0.00,VWS V14.01,2013-05-01 16:29:00,
2013-05-01 09:30:00,75.7,-99.9,30.12,NW,315,2.5,2.5,4,0.00,,BKN250,0.00,VWS V14.01,2013-05-01 16:30:00,
2013-05-01 09:31:00,75.6,-99.9,30.12,North,0,3.1,3.1,4,0.00,,BKN250,0.00,VWS V14.01,2013-05-01 16:31:00,
2013-05-01 09:32:00,75.6,-99.9,30.12,WNW,292,3.1,3.1,4,0.00,,BKN250,0.00,VWS V14.01,2013-05-01 16:32:00,
2013-05-01 09:33:00,75.4,-99.9,30.12,SW,225,3.8,3.8,4,0.00,,BKN250,0.00,VWS V14.01,2013-05-01 16:33:00,
2013-05-01 09:34:00,75.0,-99.9,30.12,WNW,292,3.8,3.8,4,0.00,,BKN250,0.00,VWS V14.01,2013-05-01 16:34:00,
2013-05-01 09:35:00,75.0,-99.9,30.12,North,0,3.6,3.8,4,0.00,,BKN250,0.00,VWS V14.01,2013-05-01 16:35:00,
2013-05-01 09:36:00,75.4,-99.9,30.12,NNE,22,5.6,5.6,4,0.00,,,0.00,VWS V14.01,2013-05-01 16:36:00,
2013-05-01 09:38:00,76.8,-99.9,30.12,North,0,4.0,5.6,4,0.00,,,0.00,VWS V14.01,2013-05-01 16:38:00,
2013-05-01 09:40:00,76.8,-99.9,30.12,North,0,4.0,5.6,4,0.00,,BKN250,0.00,VWS V14.01,2013-05-01 16:40:00,
2013-05-01 09:48:00,76.8,-99.9,30.12,NNE,22,6.3,7.6,4,0.00,,,0.00,VWS V14.01,2013-05-01 16:48:00,
2013-05-01 09:50:00,76.8,-99.9,30.12,NNE,22,6.3,7.6,4,0.00,,BKN250,0.00,VWS V14.01,2013-05-01 16:50:00,
2013-05-01 09:58:00,77.9,-99.9,30.15,ESE,112,7.8,7.8,4,0.00,,,0.00,VWS V14.01,2013-05-01 16:58:00,
2013-05-01 10:00:00,77.9,-99.9,30.15,ESE,112,7.8,7.8,4,0.00,,BKN250,0.00,VWS V14.01,2013-05-01 17:00:00,
2013-05-01 10:08:00,77.5,-99.9,30.12,NNW,338,6.3,8.5,4,0.00,,FEW250,0.00,VWS V14.01,2013-05-01 17:08:00,
2013-05-01 10:18:00,78.6,-99.9,30.12,NNW,338,6.3,6.3,4,0.00,,FEW250,0.00,VWS V14.01,2013-05-01 17:18:00,
2013-05-01 10:20:00,78.6,-99.9,30.12,NNW,338,6.3,6.3,4,0.00,,BKN250,0.00,VWS V14.01,2013-05-01 17:20:00,
2013-05-01 10:28:00,76.8,-99.9,30.15,NNW,338,6.3,6.3,4,0.00,,FEW250,0.00,VWS V14.01,2013-05-01 17:28:00,
2013-05-01 10:38:00,79.2,-99.9,30.15,SSW,202,1.6,6.3,4,0.00,,FEW250,0.00,VWS V14.01,2013-05-01 17:38:00,
2013-05-01 10:40:00,79.2,-99.9,30.15,SSW,202,1.6,6.3,4,0.00,,BKN250,0.00,VWS V14.01,2013-05-01 17:40:00,
2013-05-01 10:48:00,79.0,-99.9,30.15,NNW,338,5.4,7.8,4,0.00,,FEW250,0.00,VWS V14.01,2013-05-01 17:48:00,
2013-05-01 10:50:00,79.0,-99.9,30.15,NNW,338,5.4,7.8,4,0.00,,BKN250,0.00,VWS V14.01,2013-05-01 17:50:00,
2013-05-01 10:58:00,80.4,-99.9,30.15,North,0,6.5,6.5,4,0.00,,FEW250,0.00,VWS V14.01,2013-05-01 17:58:00,
2013-05-01 11:00:00,80.4,-99.9,30.15,North,0,6.5,6.5,4,0.00,,BKN250,0.00,VWS V14.01,2013-05-01 18:00:00,
2013-05-01 11:08:00,80.2,-99.9,30.15,North,0,3.4,6.5,4,0.00,,FEW250,0.00,VWS V14.01,2013-05-01 18:08:00,
2013-05-01 11:10:00,80.2,-99.9,30.15,North,0,3.4,6.5,4,0.00,,BKN250,0.00,VWS V14.01,2013-05-01 18:10:00,
2013-05-01 11:18:00,80.6,-99.9,30.15,North,0,2.7,3.4,4,0.00,,FEW250,0.00,VWS V14.01,2013-05-01 18:18:00,
2013-05-01 11:29:00,79.0,-99.9,30.12,North,0,1.6,8.5,4,0.00,,FEW250,0.00,VWS V14.01,2013-05-01 18:29:00,
2013-05-01 11:30:00,79.0,-99.9,30.12,North,0,1.6,8.5,4,0.00,,BKN250,0.00,VWS V14.01,2013-05-01 18:30:00,
2013-05-01 11:38:00,81.5,-99.9,30.12,ENE,68,3.1,7.8,4,0.00,,FEW250,0.00,VWS V14.01,2013-05-01 18:38:00,
2013-05-01 11:40:00,81.5,-99.9,30.12,ENE,68,3.1,7.8,4,0.00,,BKN250,0.00,VWS V14.01,2013-05-01 18:40:00,
2013-05-01 11:49:00,81.3,-99.9,30.12,North,0,0.0,8.1,4,0.00,,FEW250,0.00,VWS V14.01,2013-05-01 18:49:00,
2013-05-01 11:50:00,81.3,-99.9,30.12,North,0,0.0,8.1,4,0.00,,BKN250,0.00,VWS V14.01,2013-05-01 18:50:00,
2013-05-01 11:58:00,83.8,-99.9,30.12,North,0,3.6,6.3,4,0.00,,FEW250,0.00,VWS V14.01,2013-05-01 18:58:00,
2013-05-01 12:00:00,83.8,-99.9,30.12,North,0,3.6,6.3,4,0.00,,BKN250,0.00,VWS V14.01,2013-05-01 19:00:00,
2013-05-01 12:08:00,83.8,-99.9,30.12,NNW,338,5.6,8.1,4,0.00,,FEW250,0.00,VWS V14.01,2013-05-01 19:08:00,
2013-05-01 12:10:00,83.8,-99.9,30.12,NNW,338,5.6,8.1,4,0.00,,BKN250,0.00,VWS V14.01,2013-05-01 19:10:00,
2013-05-01 12:18:00,81.7,-99.9,30.12,WNW,292,3.8,5.6,4,0.00,,FEW250,0.00,VWS V14.01,2013-05-01 19:18:00,
2013-05-01 12:20:00,81.7,-99.9,30.12,WNW,292,3.8,5.6,4,0.00,,BKN250,0.00,VWS V14.01,2013-05-01 19:20:00,
2013-05-01 12:28:00,83.5,-99.9,30.12,East,90,3.6,7.2,4,0.00,,FEW250,0.00,VWS V14.01,2013-05-01 19:28:00,
2013-05-01 12:30:00,83.5,-99.9,30.12,East,90,3.6,7.2,4,0.00,,BKN250,0.00,VWS V14.01,2013-05-01 19:30:00,
2013-05-01 12:38:00,83.1,-99.9,30.12,NNW,338,3.6,3.6,4,0.00,,FEW250,0.00,VWS V14.01,2013-05-01 19:38:00,
2013-05-01 12:40:00,83.1,-99.9,30.12,NNW,338,3.6,3.6,4,0.00,,BKN250,0.00,VWS V14.01,2013-05-01 19:40:00,
2013-05-01 12:49:00,83.8,-99.9,30.12,ESE,112,4.7,4.9,4,0.00,,FEW250,0.00,VWS V14.01,2013-05-01 19:49:00,
2013-05-01 12:50:00,83.8,-99.9,30.12,ESE,112,4.7,4.9,4,0.00,,BKN250,0.00,VWS V14.01,2013-05-01 19:50:00,
2013-05-01 12:58:00,84.0,-99.9,30.12,West,270,1.1,6.5,4,0.00,,FEW250,0.00,VWS V14.01,2013-05-01 19:58:00,
2013-05-01 13:00:00,84.0,-99.9,30.12,West,270,1.1,6.5,4,0.00,,BKN250,0.00,VWS V14.01,2013-05-01 20:00:00,
2013-05-01 13:08:00,85.1,-99.9,30.12,NE,45,2.9,9.4,4,0.00,,FEW250,0.00,VWS V14.01,2013-05-01 20:08:00,
2013-05-01 13:10:00,85.1,-99.9,30.12,NE,45,2.9,9.4,4,0.00,,BKN250,0.00,VWS V14.01,2013-05-01 20:10:00,
2013-05-01 13:18:00,85.8,-99.9,30.12,NNE,22,3.8,8.1,4,0.00,,FEW250,0.00,VWS V14.01,2013-05-01 20:18:00,
2013-05-01 13:20:00,85.8,-99.9,30.12,NNE,22,3.8,8.1,4,0.00,,BKN250,0.00,VWS V14.01,2013-05-01 20:20:00,
2013-05-01 13:28:00,85.3,-99.9,30.09,ESE,112,4.9,8.1,4,0.00,,FEW250,0.00,VWS V14.01,2013-05-01 20:28:00,
2013-05-01 13:30:00,85.3,-99.9,30.09,ESE,112,4.9,8.1,4,0.00,,BKN250,0.00,VWS V14.01,2013-05-01 20:30:00,
2013-05-01 13:38:00,84.9,-99.9,30.12,NNE,22,2.2,9.0,4,0.00,,FEW250,0.00,VWS V14.01,2013-05-01 20:38:00,
2013-05-01 13:40:00,84.9,-99.9,30.12,NNE,22,2.2,9.0,4,0.00,,BKN250,0.00,VWS V14.01,2013-05-01 20:40:00,
2013-05-01 13:48:00,86.2,-99.9,30.12,NNE,22,4.9,8.5,4,0.00,,FEW250,0.00,VWS V14.01,2013-05-01 20:48:00,
2013-05-01 13:50:00,86.2,-99.9,30.12,NNE,22,4.9,8.5,4,0.00,,BKN250,0.00,VWS V14.01,2013-05-01 20:50:00,
2013-05-01 13:58:00,86.5,-99.9,30.09,NNE,22,6.3,7.6,4,0.00,,FEW250,0.00,VWS V14.01,2013-05-01 20:58:00,
2013-05-01 14:00:00,86.5,-99.9,30.09,NNE,22,6.3,7.6,4,0.00,,BKN250,0.00,VWS V14.01,2013-05-01 21:00:00,
2013-05-01 14:08:00,86.5,-99.9,30.09,South,180,2.0,10.1,4,0.00,,FEW250,0.00,VWS V14.01,2013-05-01 21:08:00,
2013-05-01 14:10:00,86.5,-99.9,30.09,South,180,2.0,10.1,4,0.00,,BKN250,0.00,VWS V14.01,2013-05-01 21:10:00,
2013-05-01 14:18:00,84.9,-99.9,30.09,NNW,338,6.0,10.7,4,0.00,,FEW250,0.00,VWS V14.01,2013-05-01 21:18:00,
2013-05-01 14:20:00,84.9,-99.9,30.09,NNW,338,6.0,10.7,4,0.00,,BKN250,0.00,VWS V14.01,2013-05-01 21:20:00,
2013-05-01 14:28:00,85.3,-99.9,30.09,WNW,292,7.4,9.6,4,0.00,,FEW250,0.00,VWS V14.01,2013-05-01 21:28:00,
2013-05-01 14:30:00,85.3,-99.9,30.09,WNW,292,7.4,9.6,4,0.00,,BKN250,0.00,VWS V14.01,2013-05-01 21:30:00,
2013-05-01 14:38:00,85.6,-99.9,30.09,NNW,338,2.5,9.8,4,0.00,,FEW250,0.00,VWS V14.01,2013-05-01 21:38:00,
2013-05-01 14:40:00,85.6,-99.9,30.09,NNW,338,2.5,9.8,4,0.00,,BKN250,0.00,VWS V14.01,2013-05-01 21:40:00,
2013-05-01 14:48:00,85.3,-99.9,30.09,NNW,338,7.6,13.0,4,0.00,,FEW250,0.00,VWS V14.01,2013-05-01 21:48:00,
2013-05-01 14:50:00,85.3,-99.9,30.09,NNW,338,7.6,13.0,4,0.00,,BKN250,0.00,VWS V14.01,2013-05-01 21:50:00,
2013-05-01 14:59:00,85.8,-99.9,30.09,NW,315,6.0,12.1,4,0.00,,FEW250,0.00,VWS V14.01,2013-05-01 21:59:00,
2013-05-01 15:00:00,85.8,-99.9,30.09,NW,315,6.0,12.1,4,0.00,,BKN250,0.00,VWS V14.01,2013-05-01 22:00:00,
2013-05-01 15:08:00,85.1,-99.9,30.09,WNW,292,3.6,11.0,4,0.00,,FEW250,0.00,VWS V14.01,2013-05-01 22:08:00,
2013-05-01 15:10:00,85.1,-99.9,30.09,WNW,292,3.6,11.0,4,0.00,,BKN250,0.00,VWS V14.01,2013-05-01 22:10:00,
2013-05-01 15:18:00,86.0,-99.9,30.09,NW,315,3.8,10.3,4,0.00,,FEW250,0.00,VWS V14.01,2013-05-01 22:18:00,
2013-05-01 15:20:00,86.0,-99.9,30.09,NW,315,3.8,10.3,4,0.00,,BKN250,0.00,VWS V14.01,2013-05-01 22:20:00,
2013-05-01 15:28:00,86.0,-99.9,30.06,NW,315,3.8,11.9,4,0.00,,FEW250,0.00,VWS V14.01,2013-05-01 22:28:00,
2013-05-01 15:30:00,86.0,-99.9,30.06,NW,315,3.8,11.9,4,0.00,,BKN250,0.00,VWS V14.01,2013-05-01 22:30:00,
2013-05-01 15:38:00,86.5,-99.9,30.09,SSW,202,1.6,6.3,4,0.00,,FEW250,0.00,VWS V14.01,2013-05-01 22:38:00,
2013-05-01 15:40:00,86.5,-99.9,30.09,SSW,202,1.6,6.3,4,0.00,,BKN250,0.00,VWS V14.01,2013-05-01 22:40:00,
2013-05-01 15:48:00,85.3,-99.9,30.09,WNW,292,5.4,11.0,4,0.00,,FEW250,0.00,VWS V14.01,2013-05-01 22:48:00,
2013-05-01 15:50:00,85.3,-99.9,30.09,WNW,292,5.4,11.0,4,0.00,,BKN250,0.00,VWS V14.01,2013-05-01 22:50:00,
2013-05-01 15:58:00,85.6,-99.9,30.09,WNW,292,3.6,12.8,4,0.00,,FEW250,0.00,VWS V14.01,2013-05-01 22:58:00,
2013-05-01 16:00:00,85.6,-99.9,30.09,WNW,292,3.6,12.8,4,0.00,,BKN250,0.00,VWS V14.01,2013-05-01 23:00:00,
2013-05-01 16:08:00,84.2,-99.9,30.09,NNW,338,7.8,12.3,4,0.00,,FEW250,0.00,VWS V14.01,2013-05-01 23:08:00,
2013-05-01 16:10:00,84.2,-99.9,30.09,NNW,338,7.8,12.3,4,0.00,,BKN250,0.00,VWS V14.01,2013-05-01 23:10:00,
2013-05-01 16:18:00,84.2,-99.9,30.09,NNW,338,8.1,12.3,4,0.00,,FEW250,0.00,VWS V14.01,2013-05-01 23:18:00,
2013-05-01 16:20:00,84.2,-99.9,30.09,NNW,338,8.1,12.3,4,0.00,,BKN250,0.00,VWS V14.01,2013-05-01 23:20:00,
2013-05-01 16:28:00,83.5,-99.9,30.06,WNW,292,4.3,12.1,4,0.00,,FEW250,0.00,VWS V14.01,2013-05-01 23:28:00,
2013-05-01 16:30:00,83.5,-99.9,30.06,WNW,292,4.3,12.1,4,0.00,,BKN250,0.00,VWS V14.01,2013-05-01 23:30:00,
2013-05-01 16:38:00,83.3,-99.9,30.09,WSW,248,7.4,9.8,4,0.00,,FEW250,0.00,VWS V14.01,2013-05-01 23:38:00,
2013-05-01 16:40:00,83.3,-99.9,30.09,WSW,248,7.4,9.8,4,0.00,,BKN250,0.00,VWS V14.01,2013-05-01 23:40:00,
2013-05-01 16:48:00,82.6,-99.9,30.09,NW,315,6.5,12.5,4,0.00,,FEW250,0.00,VWS V14.01,2013-05-01 23:48:00,
2013-05-01 16:50:00,82.6,-99.9,30.09,NW,315,6.5,12.5,4,0.00,,BKN250,0.00,VWS V14.01,2013-05-01 23:50:00,
2013-05-01 16:59:00,82.9,-99.9,30.09,WSW,248,6.0,10.5,4,0.00,,FEW250,0.00,VWS V14.01,2013-05-01 23:59:00,
2013-05-01 17:00:00,82.9,-99.9,30.09,WSW,248,6.0,10.5,4,0.00,,BKN250,0.00,VWS V14.01,2013-05-02 00:00:00,
2013-05-01 17:08:00,82.6,-99.9,30.09,WSW,248,9.2,10.1,4,0.00,,FEW250,0.00,VWS V14.01,2013-05-02 00:08:00,
2013-05-01 17:10:00,82.6,-99.9,30.09,WSW,248,9.2,10.1,4,0.00,,BKN250,0.00,VWS V14.01,2013-05-02 00:10:00,
2013-05-01 17:18:00,82.4,-99.9,30.12,NNW,338,4.3,9.2,4,0.00,,FEW250,0.00,VWS V14.01,2013-05-02 00:18:00,
2013-05-01 17:20:00,82.4,-99.9,30.12,NNW,338,4.3,9.2,4,0.00,,BKN250,0.00,VWS V14.01,2013-05-02 00:20:00,
2013-05-01 17:28:00,82.4,-99.9,30.09,WSW,248,6.3,12.5,4,0.00,,FEW250,0.00,VWS V14.01,2013-05-02 00:28:00,
2013-05-01 17:30:00,82.4,-99.9,30.09,WSW,248,6.3,12.5,4,0.00,,BKN250,0.00,VWS V14.01,2013-05-02 00:30:00,
2013-05-01 17:38:00,82.4,-99.9,30.09,West,270,6.5,7.6,4,0.00,,FEW250,0.00,VWS V14.01,2013-05-02 00:38:00,
2013-05-01 17:40:00,82.4,-99.9,30.09,West,270,6.5,7.6,4,0.00,,BKN250,0.00,VWS V14.01,2013-05-02 00:40:00,
2013-05-01 17:48:00,82.4,-99.9,30.09,WSW,248,4.9,9.2,4,0.00,,FEW250,0.00,VWS V14.01,2013-05-02 00:48:00,
2013-05-01 17:58:00,82.4,-99.9,30.12,WSW,248,8.7,10.5,4,0.00,,FEW250,0.00,VWS V14.01,2013-05-02 00:58:00,
2013-05-01 18:08:00,82.4,-99.9,30.12,WSW,248,5.4,9.6,4,0.00,,FEW250,0.00,VWS V14.01,2013-05-02 01:08:00,
2013-05-01 18:10:00,82.4,-99.9,30.12,WSW,248,5.4,9.6,4,0.00,,BKN250,0.00,VWS V14.01,2013-05-02 01:10:00,
2013-05-01 18:18:00,82.4,-99.9,30.09,WSW,248,7.6,7.6,4,0.00,,FEW250,0.00,VWS V14.01,2013-05-02 01:18:00,
2013-05-01 18:20:00,82.4,-99.9,30.09,WSW,248,7.6,7.6,4,0.00,,BKN250,0.00,VWS V14.01,2013-05-02 01:20:00,
2013-05-01 18:28:00,82.4,-99.9,30.12,WNW,292,2.9,7.6,4,0.00,,FEW250,0.00,VWS V14.01,2013-05-02 01:28:00,
2013-05-01 18:30:00,82.4,-99.9,30.12,WNW,292,2.9,7.6,4,0.00,,BKN250,0.00,VWS V14.01,2013-05-02 01:30:00,
2013-05-01 18:38:00,82.4,-99.9,30.12,WNW,292,5.6,5.8,4,0.00,,FEW250,0.00,VWS V14.01,2013-05-02 01:38:00,
2013-05-01 18:40:00,82.4,-99.9,30.12,WNW,292,5.6,5.8,4,0.00,,BKN250,0.00,VWS V14.01,2013-05-02 01:40:00,
2013-05-01 18:48:00,82.4,-99.9,30.12,West,270,5.4,8.5,4,0.00,,FEW250,0.00,VWS V14.01,2013-05-02 01:48:00,
2013-05-01 18:50:00,82.4,-99.9,30.12,West,270,5.4,8.5,4,0.00,,BKN250,0.00,VWS V14.01,2013-05-02 01:50:00,
2013-05-01 18:58:00,82.4,-99.9,30.15,SSW,202,6.3,7.4,4,0.00,,FEW250,0.00,VWS V14.01,2013-05-02 01:58:00,
2013-05-01 19:00:00,82.4,-99.9,30.15,SSW,202,6.3,7.4,4,0.00,,BKN250,0.00,VWS V14.01,2013-05-02 02:00:00,
2013-05-01 19:08:00,82.4,-99.9,30.15,West,270,6.5,6.5,4,0.00,,CLR,0.00,VWS V14.01,2013-05-02 02:08:00,
2013-05-01 19:10:00,82.4,-99.9,30.15,West,270,6.5,6.5,4,0.00,,BKN250,0.00,VWS V14.01,2013-05-02 02:10:00,
2013-05-01 19:18:00,82.4,-99.9,30.15,WSW,248,2.7,6.5,4,0.00,,CLR,0.00,VWS V14.01,2013-05-02 02:18:00,
2013-05-01 19:20:00,82.4,-99.9,30.15,WSW,248,2.7,6.5,4,0.00,,BKN250,0.00,VWS V14.01,2013-05-02 02:20:00,
2013-05-01 19:28:00,82.4,-99.9,30.15,WSW,248,5.6,7.4,4,0.00,,CLR,0.00,VWS V14.01,2013-05-02 02:28:00,
2013-05-01 19:30:00,82.4,-99.9,30.15,WSW,248,5.6,7.4,4,0.00,,BKN250,0.00,VWS V14.01,2013-05-02 02:30:00,
2013-05-01 19:38:00,82.4,-99.9,30.15,WSW,248,6.5,7.4,4,0.00,,CLR,0.00,VWS V14.01,2013-05-02 02:38:00,
2013-05-01 19:40:00,82.4,-99.9,30.15,WSW,248,6.5,7.4,4,0.00,,BKN250,0.00,VWS V14.01,2013-05-02 02:40:00,
2013-05-01 19:48:00,82.4,-99.9,30.15,West,270,4.0,7.8,4,0.00,,CLR,0.00,VWS V14.01,2013-05-02 02:48:00,
2013-05-01 19:50:00,82.4,-99.9,30.15,West,270,4.0,7.8,4,0.00,,BKN250,0.00,VWS V14.01,2013-05-02 02:50:00,
2013-05-01 19:58:00,70.7,-99.9,30.15,WSW,248,3.6,7.6,5,0.00,,CLR,0.00,VWS V14.01,2013-05-02 02:58:00,
2013-05-01 20:00:00,70.7,-99.9,30.15,WSW,248,3.6,7.6,5,0.00,,BKN250,0.00,VWS V14.01,2013-05-02 03:00:00,
2013-05-01 20:08:00,69.6,-99.9,30.15,NW,315,3.6,4.3,6,0.00,,CLR,0.00,VWS V14.01,2013-05-02 03:08:00,
2013-05-01 20:10:00,69.6,-99.9,30.15,NW,315,3.6,4.3,6,0.00,,BKN250,0.00,VWS V14.01,2013-05-02 03:10:00,
2013-05-01 20:18:00,69.3,-99.9,30.15,WNW,292,6.0,7.2,6,0.00,,CLR,0.00,VWS V14.01,2013-05-02 03:18:00,
2013-05-01 20:20:00,69.3,-99.9,30.15,WNW,292,6.0,7.2,6,0.00,,BKN250,0.00,VWS V14.01,2013-05-02 03:20:00,
2013-05-01 20:28:00,69.3,-99.9,30.12,WSW,248,4.0,7.8,6,0.00,,CLR,0.00,VWS V14.01,2013-05-02 03:28:00,
2013-05-01 20:30:00,69.3,-99.9,30.12,WSW,248,4.0,7.8,6,0.00,,BKN250,0.00,VWS V14.01,2013-05-02 03:30:00,
2013-05-01 20:38:00,68.4,-99.9,30.15,WNW,292,3.4,6.9,6,0.00,,CLR,0.00,VWS V14.01,2013-05-02 03:38:00,
2013-05-01 20:40:00,68.4,-99.9,30.15,WNW,292,3.4,6.9,6,0.00,,BKN250,0.00,VWS V14.01,2013-05-02 03:40:00,
2013-05-01 20:48:00,67.3,-99.9,30.15,West,270,3.1,5.8,6,0.00,,CLR,0.00,VWS V14.01,2013-05-02 03:48:00,
2013-05-01 20:50:00,67.3,-99.9,30.15,West,270,3.1,5.8,6,0.00,,BKN250,0.00,VWS V14.01,2013-05-02 03:50:00,
2013-05-01 20:58:00,66.9,-99.9,30.15,NW,315,2.7,6.5,6,0.00,,CLR,0.00,VWS V14.01,2013-05-02 03:58:00,
2013-05-01 21:00:00,66.9,-99.9,30.15,NW,315,2.7,6.5,6,0.00,,BKN250,0.00,VWS V14.01,2013-05-02 04:00:00,
2013-05-01 21:08:00,66.9,-99.9,30.15,NNW,338,3.4,7.2,6,0.00,,CLR,0.00,VWS V14.01,2013-05-02 04:08:00,
2013-05-01 21:10:00,66.9,-99.9,30.15,NNW,338,3.4,7.2,6,0.00,,BKN250,0.00,VWS V14.01,2013-05-02 04:10:00,
2013-05-01 21:18:00,66.4,-99.9,30.15,WNW,292,4.0,4.3,6,0.00,,CLR,0.00,VWS V14.01,2013-05-02 04:18:00,
2013-05-01 21:20:00,66.4,-99.9,30.15,WNW,292,4.0,4.3,6,0.00,,BKN250,0.00,VWS V14.01,2013-05-02 04:20:00,
2013-05-01 21:28:00,65.8,-99.9,30.18,NNW,338,2.9,4.3,6,0.00,,CLR,0.00,VWS V14.01,2013-05-02 04:28:00,
2013-05-01 21:30:00,65.8,-99.9,30.18,NNW,338,2.9,4.3,6,0.00,,BKN250,0.00,VWS V14.01,2013-05-02 04:30:00,
2013-05-01 21:38:00,65.7,-99.9,30.18,WNW,292,4.7,5.4,6,0.00,,CLR,0.00,VWS V14.01,2013-05-02 04:38:00,
2013-05-01 21:40:00,65.7,-99.9,30.18,WNW,292,4.7,5.4,6,0.00,,BKN250,0.00,VWS V14.01,2013-05-02 04:40:00,
2013-05-01 21:48:00,66.0,-99.9,30.18,WNW,292,3.8,4.9,6,0.00,,CLR,0.00,VWS V14.01,2013-05-02 04:48:00,
2013-05-01 21:50:00,66.0,-99.9,30.18,WNW,292,3.8,4.9,6,0.00,,BKN250,0.00,VWS V14.01,2013-05-02 04:50:00,
2013-05-01 21:58:00,66.0,-99.9,30.18,WNW,292,3.6,5.6,6,0.00,,CLR,0.00,VWS V14.01,2013-05-02 04:58:00,
2013-05-01 22:00:00,66.0,-99.9,30.18,WNW,292,3.6,5.6,6,0.00,,BKN250,0.00,VWS V14.01,2013-05-02 05:00:00,
2013-05-01 22:08:00,65.7,-99.9,30.18,WNW,292,2.9,3.6,6,0.00,,CLR,0.00,VWS V14.01,2013-05-02 05:08:00,
2013-05-01 22:10:00,65.7,-99.9,30.18,WNW,292,2.9,3.6,6,0.00,,BKN250,0.00,VWS V14.01,2013-05-02 05:10:00,
2013-05-01 22:18:00,65.7,-99.9,30.18,West,270,3.1,4.3,6,0.00,,CLR,0.00,VWS V14.01,2013-05-02 05:18:00,
2013-05-01 22:20:00,65.7,-99.9,30.18,West,270,3.1,4.3,6,0.00,,BKN250,0.00,VWS V14.01,2013-05-02 05:20:00,
2013-05-01 22:28:00,65.7,-99.9,30.18,West,270,2.0,4.7,6,0.00,,CLR,0.00,VWS V14.01,2013-05-02 05:28:00,
2013-05-01 22:30:00,65.7,-99.9,30.18,West,270,2.0,4.7,6,0.00,,BKN250,0.00,VWS V14.01,2013-05-02 05:30:00,
2013-05-01 22:38:00,64.4,-99.9,30.18,WNW,292,3.8,5.8,6,0.00,,CLR,0.00,VWS V14.01,2013-05-02 05:38:00,
2013-05-01 22:40:00,64.4,-99.9,30.18,WNW,292,3.8,5.8,6,0.00,,BKN250,0.00,VWS V14.01,2013-05-02 05:40:00,
2013-05-01 22:48:00,63.9,-99.9,30.18,WNW,292,3.4,4.3,7,0.00,,CLR,0.00,VWS V14.01,2013-05-02 05:48:00,
2013-05-01 22:50:00,63.9,-99.9,30.18,WNW,292,3.4,4.3,7,0.00,,BKN250,0.00,VWS V14.01,2013-05-02 05:50:00,
2013-05-01 22:58:00,63.9,-99.9,30.18,WSW,248,3.1,4.0,7,0.00,,CLR,0.00,VWS V14.01,2013-05-02 05:58:00,
2013-05-01 23:00:00,63.9,-99.9,30.18,WSW,248,3.1,4.0,7,0.00,,BKN250,0.00,VWS V14.01,2013-05-02 06:00:00,
2013-05-01 23:08:00,62.2,-99.9,30.18,WSW,248,3.4,4.0,7,0.00,,CLR,0.00,VWS V14.01,2013-05-02 06:08:00,
2013-05-01 23:10:00,62.2,-99.9,30.18,WSW,248,3.4,4.0,7,0.00,,BKN250,0.00,VWS V14.01,2013-05-02 06:10:00,
2013-05-01 23:18:00,62.2,-99.9,30.18,WNW,292,2.5,4.3,7,0.00,,CLR,0.00,VWS V14.01,2013-05-02 06:18:00,
2013-05-01 23:20:00,62.2,-99.9,30.18,WNW,292,2.5,4.3,7,0.00,,BKN250,0.00,VWS V14.01,2013-05-02 06:20:00,
2013-05-01 23:28:00,62.2,-99.9,30.18,WSW,248,2.7,4.0,7,0.00,,CLR,0.00,VWS V14.01,2013-05-02 06:28:00,
2013-05-01 23:30:00,62.2,-99.9,30.18,WSW,248,2.7,4.0,7,0.00,,BKN250,0.00,VWS V14.01,2013-05-02 06:30:00,
2013-05-01 23:38:00,62.2,-99.9,30.18,NW,315,2.5,3.4,7,0.00,,CLR,0.00,VWS V14.01,2013-05-02 06:38:00,
2013-05-01 23:40:00,62.2,-99.9,30.18,NW,315,2.5,3.4,7,0.00,,BKN250,0.00,VWS V14.01,2013-05-02 06:40:00,
2013-05-01 23:48:00,61.5,-99.9,30.18,NW,315,3.1,3.4,7,0.00,,CLR,0.00,VWS V14.01,2013-05-02 06:48:00,
2013-05-01 23:50:00,61.5,-99.9,30.18,NW,315,3.1,3.4,7,0.00,,BKN250,0.00,VWS V14.01,2013-05-02 06:50:00,
2013-05-01 23:58:00,61.5,-99.9,30.18,West,270,2.9,4.3,7,0.00,,CLR,0.00,VWS V14.01,2013-05-02 06:58:00,